Regional Weather Roundup
Issued by NWS

Home | Current Version | Previous Version | Graphics & Text | Print | Product List | Glossary On
Versions: 1 2 3 4 5 6 7 8 9 10 11 12 13 14 15 16 17 18 19 20 21 22 23 24 25 26 27 28 29 30 31 32 33 34 35 36 37 38 39 40 41 42 43 44 45 46 47 48 49 50
000
ASUS43 KLOT 061008
RWRIL

ILLINOIS REGIONAL WEATHER ROUNDUP
NATIONAL WEATHER SERVICE CHICAGO/ROMEOVILLE IL
400 AM CST SAT FEB 06 2016

NOTE: "FAIR" INDICATES FEW OR NO CLOUDS BELOW 12,000 FEET WITH NO
SIGNIFICANT WEATHER AND/OR OBSTRUCTIONS TO VISIBILITY.

* THESE STATIONS ARE NOT UNDER NWS QUALITY CONTROL. THEY ALSO MAY NOT
  REPORT WEATHER SUCH AS PRECIPITATION OR FOG.

ILZ001-002-007-009-015-016-024-061100-
NORTHWEST ILLINOIS

CITY           SKY/WX    TMP DP  RH WIND       PRES   REMARKS
MOLINE         PTCLDY    28  21  75 SW6       30.25F WCI  22
STERLING*      PTCLDY    27  21  80 CALM      30.23F
SAVANNA*       PTCLDY    26  23  85 SW5       30.26R WCI  21
$$

ILZ003-004-008-010-011-017-018-061100-
NORTH CENTRAL ILLINOIS

CITY           SKY/WX    TMP DP  RH WIND       PRES   REMARKS
ROCKFORD       CLOUDY    28  22  78 S7        30.27F WCI  21
FREEPORT*      PTCLDY    26  22  87 SW8       30.26S WCI  17
ROCHELLE*      CLOUDY    27  24  87 SW6       30.26F WCI  21
DE KALB*       CLOUDY    27  23  85 SW6       30.26F WCI  21
PERU*          CLOUDY    27  26  94 S5        30.29F WCI  22
$$

ILZ005-006-012>014-019>023-061100-
NORTHEAST ILLINOIS

CITY           SKY/WX    TMP DP  RH WIND       PRES   REMARKS
CHICAGO-OHARE  CLOUDY    26  22  84 SW6       30.27S WCI  19
CHICAGO-MIDWAY MOCLDY    27  21  78 SW5       30.29S WCI  22
AURORA         CLOUDY    26  23  88 S3        30.28F FOG
LANSING*       MOCLDY    25  22  89 SW5       30.29S WCI  19
WAUKEGAN       CLOUDY    26  23  88 VRB6      30.25F WCI  19
DUPAGE AIRPORT CLOUDY    26  21  81 SW6       30.26F WCI  19
KANKAKEE*      PTCLDY    21  19  90 S5        30.31S WCI  15
WHEELING       CLOUDY    27  22  81 SW6       30.28S WCI  20
MORRIS*        CLOUDY    25  22  89 S3        30.28R
ROMEOVILLE*    CLOUDY    25  22  87 SW6       30.29R WCI  18
NORTHERLY ISL    N/A     27  22  81 W5          N/A  WCI  22
$$

LMZ740>746-061100-
SOUTHERN LAKE MICHIGAN

STATION/POSITION SKY/WX   TEMP    WIND        PRES    VSBY  WAVE
                          AIR SEA DIR/SP/G                  HT/PER
                          (F)     (DEG/KT/KT) (MB)    (MI)  (FT/S)
HARRISON CRIB              30     260/ 12/ 14   N/A
BURNHAM HARBOR             27     250/  3/  8   N/A
CALUMET HARBOR             27     220/  4/  9 1024.8F
BURNS HARBOR               26     210/  6/  9 1026.4F
MICHIGAN CITY              25     170/  8/ 10   N/A
$$

ILZ025>027-034>036-040-047-049-050-058-095>099-061100-
WEST-CENTRAL ILLINOIS

CITY           SKY/WX    TMP DP  RH WIND       PRES   REMARKS
QUINCY         MOCLDY    29  19  66 SE3       30.27F
GALESBURG*     CLOUDY    28  24  86 S5        30.26F WCI  22
MACOMB*        MOCLDY    28  24  84 S3        30.30F
JACKSONVILLE*  MOCLDY    32  26  77 S3        30.30F
PITTSFIELD*    PTCLDY    28  24  86 CALM      30.30S
$$

ILZ028>032-037-038-041>044-048-051>054-059>061-061100-
CENTRAL ILLINOIS

CITY           SKY/WX    TMP DP  RH WIND       PRES   REMARKS
PONTIAC        PTCLDY    24  22  96 S3        30.30F
BLOOMINGTON    MOCLDY    24  23  96 S7        30.30S WCI  16
DECATUR        CLOUDY    28  23  81 S5        30.31F WCI  23
PEORIA         CLOUDY    27  23  85 S5        30.30F WCI  22
LACON*         CLOUDY    27  23  86 S3        30.28F
LINCOLN*       CLOUDY    28  27  94 S3        30.31S
SPRINGFIELD    CLOUDY    31  26  82 S6        30.32R WCI  25
TAYLORVILLE    CLOUDY    30  27  86 S5        30.32R WCI  25
$$

ILZ033-039-045-046-055>057-062-063-061100-
EAST-CENTRAL ILLINOIS

CITY           SKY/WX    TMP DP  RH WIND       PRES   REMARKS
CHAMPAIGN      CLEAR     24  21  88 S8        30.32R WCI  15
RANTOUL*       CLEAR     25  24  95 S3        30.31S FOG
MATTOON        CLOUDY    26  22  84 S8        30.31F WCI  18
PARIS*         CLOUDY    24  22  93 CALM      30.34S
$$

ILZ079-100>102-061100-
SOUTHWEST ILLINOIS

CITY           SKY/WX    TMP DP  RH WIND       PRES   REMARKS
ALTON          CLOUDY    28  24  84 CALM      30.31F
BELLEVILLE     PTCLDY    27  25  91 CALM      30.31S
CAHOKIA*       CLEAR     27  21  78 CALM      30.32S
SPARTA*        PTCLDY    28  23  81 CALM      30.32S
$$

ILZ064>066-069>071-074>076-080>082-084>086-088>090-092>094-061100-
SOUTH-CENTRAL ILLINOIS

CITY           SKY/WX    TMP DP  RH WIND       PRES   REMARKS
CARBONDALE     PTCLDY    24  21  88 CALM      30.32S
CAIRO*         CLEAR     25  25 100 CALM      30.34S
EFFINGHAM*     CLOUDY    28  27  99 E3        30.35S
MARION         CLEAR     28  23  80 CALM      30.33S
MT. VERNON     CLOUDY    28  19  69 NE3       30.33S
CENTRALIA*     CLOUDY    29  24  83 CALM      30.31F
SALEM*         CLOUDY    29  24  80 E3        30.33S
METROPOLIS*    PTCLDY    25  24  96 CALM      30.35S
$$

ILZ067-068-072-073-078-083-087-091-061100-
SOUTHEAST ILLINOIS

CITY           SKY/WX    TMP DP  RH WIND       PRES   REMARKS
LAWRENCEVILLE  CLOUDY    23  21  92 CALM      30.35F FOG
FLORA*         CLOUDY    28  24  86 CALM      30.35S
FAIRFIELD*     CLOUDY    28  24  85 CALM      30.33S
HARRISBURG*    CLEAR     26  23  88 CALM      30.34S
ROBINSON*      CLOUDY    21  20  94 CALM      30.36F
CARMI*         CLOUDY    28  26  91 NE5       30.34S WCI  23
$$

ABBREVIATIONS USED IN REMARKS
   TC - TEMPERATURE IN CELSIUS
  WCI - WIND CHILL INDEX
   HX - HEAT INDEX
  VSB - VISIBILITY
$$




USA.gov is the U.S. government's official web portal to all federal, state and local government web resources and services.